Showing default

RELAY 1 (A-15), 503

Orbit data source: Space-Track

RELAY 1 (A-15), 503 is a payload satellite owned by GSFC (US) that was launched on Thu, 13 Dec 1962 UTC via a THOR DELTA B launch vehicle from the Air Force Eastern Test Range (AFETR). Payload-class satellites include a variety of spacecraft equipped with specific instruments for various scientific and technological missions. These include communications satellites like Starlink; space stations such as the ISS; scientific satellites like the Hubble; Earth observation satellites from companies like Planet Labs, Umbra, and HawkEye 360; GPS; miniature CubeSats for education and research; and military/defense satellites.

Loading next visibility...
Identifier
503, 1962-068A
Orbit
Active
Country
Flag of USUS
Related business
Manufacturer
RCA/East Windsor
Mission
Spacecraft
Bus & Motor
RELAY, Unknown motor
Mass
78 kg wet, 78 kg dry
Launch date (UTC)
1962-12-13 (63 years ago)
Launch vehicle
THOR DELTA B
Launch site
Air Force Eastern Test Range (AFETR)
Object type
Payload
Rocket body
Debris
Shape & HBR
Unknown
Radar Cross Section
Medium (>0.1 m² and <1 m²)

Expand to show TLE details & history
Last TLE update: 22 hours ago

TLE from 22 hours ago
0 RELAY 1 (A-15)
1 00503U 62068A   25292.32921215 -.00000015  00000-0  00000-0 0  9992
2 00503  47.5314  13.3322 2837593 286.5617  82.2909  7.78162998786738
Epoch: 2025-10-19T07:54Z
TLE epoch observation values (Epoch: 2025-10-19T07:54:03.929Z)
Latitude
28.94718°
Longitude
-102.93281°
Altitude
4,824.297 km
Speed
5.843 km/s
True Right ascension
02h 54m 31s
True Declination
28° 51' 16"
Sunlit
Object was in full shadow at epoch
Visualization orbit readout
Latitude
Unknown
Longitude
Unknown
Altitude
Unknown
Speed
Unknown
Apparent Right ascension
Unknown
Apparent Declination
Unknown
Sunlit
N/A
Visualization observer readout
Local Sidereal Time
01:13:39
Azimuth
Unknown
Elevation
Unknown
Doppler factor
Unknown
Orbital elements
Apogee altitude
7,432.269 km
Perigee altitude
1,327.026 km
Semi-major axis
10,757.785 km
Eccentricity
0.28376
Inclination
47.5314°
RAAN
13.3322°
Arg. of periapsis
286.5617°
True anomaly
114.35429°
Mean anomaly
82.2909°
Eccentric anomaly
98.3757°
Mean motion
1.94518 °/min
Orbital period
185.07 mins
BSTAR
0
Loading maneuver chart data...
Computing Atmospheric mass density...
Loading historical data...
Loading historical data...
Loading historical data...
Loading historical data...
Loading historical data...
Loading historical data...
Loading historical data...
Other satellites on launch #68 in the year 1962 (1962-12-13 UTC)

Documentation

Showing up to 5 results
|